TimeCST,TemperatureF,Dew PointF,Humidity,Sea Level PressureIn,VisibilityMPH,Wind Direction,Wind SpeedMPH,Gust SpeedMPH,PrecipitationIn,Events,Conditions,WindDirDegrees,DateUTC
12:15 AM,23.9,21.9,92,30.03,5.0,East,4.6,-,N/A,,Overcast,90,2013-03-05 06:15:00
12:35 AM,23.9,21.9,92,30.02,5.0,East,4.6,-,N/A,Snow,Light Snow,80,2013-03-05 06:35:00
12:55 AM,23.9,21.9,92,30.02,5.0,East,5.8,-,N/A,Snow,Light Snow,90,2013-03-05 06:55:00
1:15 AM,23.7,21.7,92,30.01,7.0,East,5.8,-,N/A,,Overcast,100,2013-03-05 07:15:00
1:35 AM,23.5,21.2,91,30.01,5.0,East,6.9,-,N/A,Snow,Light Snow,90,2013-03-05 07:35:00
1:55 AM,23.4,21.2,91,30.01,5.0,East,6.9,-,N/A,,Overcast,90,2013-03-05 07:55:00
2:15 AM,23.4,21.2,91,30.01,4.0,East,6.9,-,N/A,,Overcast,90,2013-03-05 08:15:00
2:35 AM,23.0,21.2,93,30.01,4.0,East,3.5,-,N/A,,Overcast,90,2013-03-05 08:35:00
2:55 AM,23.0,21.0,92,30.01,4.0,East,4.6,-,N/A,,Overcast,80,2013-03-05 08:55:00
3:15 AM,22.8,21.0,93,30.01,4.0,ENE,4.6,-,N/A,,Overcast,70,2013-03-05 09:15:00
3:35 AM,22.8,21.0,93,30.01,4.0,ENE,4.6,-,N/A,,Overcast,70,2013-03-05 09:35:00
3:55 AM,22.8,21.0,93,30.00,4.0,ENE,4.6,-,N/A,,Overcast,70,2013-03-05 09:55:00
4:15 AM,22.8,21.0,93,30.01,4.0,ENE,4.6,-,N/A,,Overcast,60,2013-03-05 10:15:00
4:55 AM,22.8,21.0,93,30.01,5.0,ENE,5.8,-,N/A,,Overcast,70,2013-03-05 10:55:00
5:15 AM,22.8,21.0,93,30.01,4.0,ENE,4.6,-,N/A,,Overcast,60,2013-03-05 11:15:00
5:55 AM,22.8,21.0,93,30.02,4.0,ENE,5.8,-,N/A,,Overcast,60,2013-03-05 11:55:00
6:15 AM,22.8,21.0,93,30.03,4.0,ENE,5.8,-,N/A,,Overcast,60,2013-03-05 12:15:00
6:55 AM,22.8,21.0,93,30.03,4.0,NE,4.6,-,N/A,,Overcast,50,2013-03-05 12:55:00
7:15 AM,23.0,21.2,93,30.03,2.5,ENE,8.1,-,N/A,Snow,Light Snow,70,2013-03-05 13:15:00
7:35 AM,23.0,21.2,93,30.04,2.0,ENE,6.9,-,N/A,Snow,Light Snow,70,2013-03-05 13:35:00
7:55 AM,23.0,21.2,93,30.04,1.8,NE,5.8,-,N/A,Snow,Light Snow,40,2013-03-05 13:55:00
8:15 AM,23.4,21.6,93,30.05,2.5,NE,5.8,-,N/A,,Overcast,40,2013-03-05 14:15:00
8:35 AM,23.9,21.9,92,30.05,2.5,NE,5.8,-,N/A,,Overcast,50,2013-03-05 14:35:00
8:55 AM,24.3,22.1,91,30.06,2.5,ENE,8.1,-,N/A,,Overcast,60,2013-03-05 14:55:00
9:15 AM,24.6,22.1,90,30.06,4.0,NE,6.9,-,N/A,,Overcast,50,2013-03-05 15:15:00
9:34 AM,24.8,22.5,91,30.06,5.0,NE,6.9,-,N/A,,Overcast,50,2013-03-05 15:34:00
9:55 AM,25.3,22.6,89,30.06,5.0,NE,6.9,-,N/A,,Overcast,50,2013-03-05 15:55:00
10:15 AM,25.7,23.0,89,30.07,5.0,NE,10.4,-,N/A,,Overcast,40,2013-03-05 16:15:00
10:35 AM,26.2,23.0,88,30.08,7.0,NE,6.9,-,N/A,Rain,Freezing Rain,50,2013-03-05 16:35:00
10:55 AM,26.6,22.8,86,30.08,7.0,NE,9.2,-,N/A,Rain,Freezing Rain,50,2013-03-05 16:55:00
11:15 AM,26.8,22.8,85,30.08,7.0,NNE,9.2,-,N/A,,Overcast,30,2013-03-05 17:15:00
11:35 AM,27.1,22.5,83,30.08,10.0,NNE,8.1,-,N/A,,Overcast,20,2013-03-05 17:35:00
11:55 AM,27.1,22.5,83,30.09,10.0,NE,9.2,-,N/A,,Overcast,40,2013-03-05 17:55:00
12:15 PM,27.5,22.5,81,30.09,10.0,NNE,9.2,-,N/A,,Overcast,30,2013-03-05 18:15:00
12:35 PM,26.8,22.1,83,30.10,7.0,NNE,9.2,-,0.01,,Overcast,20,2013-03-05 18:35:00
12:55 PM,26.8,21.6,81,30.10,10.0,NNE,6.9,-,0.01,,Overcast,20,2013-03-05 18:55:00
1:15 PM,25.7,21.2,83,30.10,7.0,NNE,11.5,16.1,N/A,,Overcast,20,2013-03-05 19:15:00
1:35 PM,25.7,21.6,84,30.11,7.0,NNE,9.2,-,N/A,,Overcast,20,2013-03-05 19:35:00
1:55 PM,25.7,21.4,84,30.11,7.0,NNE,10.4,-,N/A,Rain,Freezing Rain,20,2013-03-05 19:55:00
2:15 PM,25.3,21.6,86,30.11,5.0,NNE,9.2,-,N/A,,Overcast,20,2013-03-05 20:15:00
2:35 PM,25.9,21.7,84,30.12,10.0,NNE,9.2,-,N/A,,Overcast,20,2013-03-05 20:35:00
2:55 PM,26.1,21.7,84,30.12,7.0,North,6.9,-,N/A,Rain,Freezing Rain,10,2013-03-05 20:55:00
3:15 PM,26.2,22.1,84,30.13,7.0,NNE,4.6,-,N/A,Rain,Freezing Rain,20,2013-03-05 21:15:00
3:35 PM,26.4,22.6,86,30.13,10.0,North,5.8,-,N/A,Rain,Freezing Rain,360,2013-03-05 21:35:00
3:55 PM,26.6,23.0,86,30.14,10.0,North,3.5,-,N/A,Rain,Freezing Rain,350,2013-03-05 21:55:00
4:15 PM,26.6,23.0,86,30.15,10.0,North,5.8,-,N/A,Rain,Freezing Rain,350,2013-03-05 22:15:00
4:35 PM,27.0,23.7,88,30.15,10.0,NNW,5.8,-,N/A,Rain,Freezing Rain,330,2013-03-05 22:35:00
4:55 PM,26.6,23.7,89,30.17,7.0,NW,5.8,-,N/A,Rain,Freezing Rain,320,2013-03-05 22:55:00
5:15 PM,26.6,23.5,88,30.18,7.0,North,9.2,-,N/A,Snow,Light Snow,10,2013-03-05 23:15:00
5:35 PM,26.1,22.1,85,30.18,10.0,North,10.4,16.1,N/A,,Overcast,10,2013-03-05 23:35:00
5:55 PM,25.3,21.0,84,30.20,10.0,North,11.5,-,N/A,,Overcast,10,2013-03-05 23:55:00
6:15 PM,24.8,20.8,85,30.21,10.0,North,10.4,-,N/A,,Overcast,10,2013-03-06 00:15:00
6:35 PM,24.6,20.8,86,30.22,10.0,North,9.2,-,N/A,,Overcast,360,2013-03-06 00:35:00
6:55 PM,23.9,20.1,85,30.22,10.0,North,8.1,-,N/A,,Overcast,10,2013-03-06 00:55:00
7:15 PM,23.5,18.3,80,30.23,10.0,NNE,6.9,-,N/A,,Overcast,20,2013-03-06 01:15:00
7:35 PM,22.1,17.2,82,30.23,10.0,North,8.1,-,N/A,,Overcast,10,2013-03-06 01:35:00
7:55 PM,22.1,16.5,79,30.23,10.0,NNE,6.9,-,N/A,,Overcast,20,2013-03-06 01:55:00
8:15 PM,21.9,15.8,77,30.24,10.0,NNE,5.8,-,N/A,,Overcast,30,2013-03-06 02:15:00
8:35 PM,20.7,15.3,80,30.23,10.0,NNE,6.9,-,N/A,,Overcast,30,2013-03-06 02:35:00
8:55 PM,19.4,14.5,81,30.25,10.0,North,4.6,-,N/A,,Scattered Clouds,360,2013-03-06 02:55:00
9:15 PM,18.7,14.4,83,30.26,10.0,NNW,3.5,-,N/A,,Scattered Clouds,330,2013-03-06 03:15:00
9:35 PM,19.0,15.3,85,30.27,10.0,NW,3.5,-,N/A,,Mostly Cloudy,320,2013-03-06 03:35:00
9:55 PM,19.9,16.2,85,30.28,10.0,NW,3.5,-,N/A,,Overcast,320,2013-03-06 03:55:00
10:15 PM,20.8,17.2,86,30.28,7.0,Calm,Calm,-,N/A,,Overcast,0,2013-03-06 04:15:00
10:35 PM,20.8,17.6,87,30.28,10.0,North,3.5,-,N/A,,Overcast,350,2013-03-06 04:35:00
10:54 PM,21.2,18.3,89,30.28,10.0,NNW,3.5,-,N/A,,Overcast,340,2013-03-06 04:54:00
11:15 PM,21.2,18.5,89,30.28,10.0,NNW,3.5,-,N/A,,Overcast,330,2013-03-06 05:15:00
11:35 PM,20.7,18.1,90,30.28,10.0,NW,4.6,-,N/A,,Overcast,320,2013-03-06 05:35:00
11:55 PM,20.8,18.3,90,30.29,10.0,NW,4.6,-,N/A,,Overcast,320,2013-03-06 05:55:00